Location: Newark
(43.6583°N, 1.6617°E)
Time: 09:17:09
(UTC+00:00)

Courier 1B - Pass Details

Date: 28 August 2019
Orbit: 962 x 1209 km, 28.3° (Epoch: 22 October)

Event Time Altitude Azimuth Distance (km) Brightness Sun altitude
Rises 13:49:20 0° 205° (SSW) 4,004 11.3 47.9°
Reaches altitude 10° 13:54:47 10° 174° (S) 2,982 10.6 47.2°
Maximum altitude 13:56:47 11° 158° (SSE) 2,867 10.3 46.9°
Drops below altitude 10° 13:58:44 10° 142° (SE) 2,933 10.2 46.7°
Sets 14:03:55 0° 110° (ESE) 3,821 10.4 46.0°
